When you browse on this site, cookies collect data to enhance your experience and personalize the content and advertising you see.
Visit our Privacy Policy to learn more. By continuing to use the site, you agree to this use of cookies and data.
  • In Spain
  • List of Countries
  • For 7 days
  • Water Temperature
  • Weather Map
  • Weather Widgets
  • user-avatar
    Login

    Hourly Weather Aktau

    Today, 20 September, Friday

    Time Temperature Precipitation Wind Pressure Humidity
    00:00 +19°C° 0 mm 6 mps 762 mmHg 40%
    01:00 +19°C° 0 mm 6 mps 762 mmHg 41%
    02:00 +17°C° 0 mm 6 mps 762 mmHg 42%
    03:00 +17°C° 0 mm 6 mps 761 mmHg 43%
    04:00 +17°C° 0 mm 6 mps 761 mmHg 45%
    05:00 +17°C° 0 mm 6 mps 761 mmHg 46%
    06:00 +17°C° 0 mm 6 mps 761 mmHg 47%
    07:00 +20°C° 0 mm 6 mps 761 mmHg 38%
    08:00 +22°C° 0 mm 6 mps 761 mmHg 30%
    09:00 +26°C° 0 mm 6 mps 761 mmHg 22%
    10:00 +27°C° 0 mm 6 mps 760 mmHg 20%
    11:00 +29°C° 0 mm 6 mps 760 mmHg 19%
    12:00 +30°C° 0 mm 6 mps 759 mmHg 18%
    13:00 +32°C° 0 mm 6 mps 758 mmHg 18%
    14:00 +32°C° 0 mm 6 mps 757 mmHg 18%
    15:00 +33°C° 0 mm 6 mps 757 mmHg 18%
    16:00 +30°C° 0 mm 6 mps 756 mmHg 20%
    17:00 +29°C° 0 mm 6 mps 756 mmHg 21%
    18:00 +27°C° 0 mm 5 mps 755 mmHg 23%
    19:00 +26°C° 0 mm 5 mps 755 mmHg 29%
    20:00 +23°C° 0 mm 5 mps 754 mmHg 34%
    21:00 +22°C° 0 mm 5 mps 754 mmHg 39%
    22:00 +21°C° 0 mm 4 mps 754 mmHg 45%
    23:00 +21°C° 0 mm 4 mps 753 mmHg 51%

    Tomorrow, 21 September, Saturday

    Time Temperature Precipitation Wind Pressure Humidity
    00:00 +20°C° 0 mm 4 mps 753 mmHg 57%
    01:00 +20°C° 0 mm 4 mps 752 mmHg 60%
    02:00 +20°C° 0 mm 4 mps 752 mmHg 64%
    03:00 +19°C° 0 mm 4 mps 751 mmHg 68%
    04:00 +19°C° 0 mm 4 mps 751 mmHg 70%
    05:00 +19°C° 0 mm 4 mps 751 mmHg 72%
    06:00 +19°C° 0 mm 4 mps 751 mmHg 74%
    07:00 +21°C° 0 mm 4 mps 751 mmHg 66%
    08:00 +23°C° 0 mm 5 mps 751 mmHg 59%
    09:00 +24°C° 0 mm 6 mps 751 mmHg 51%
    10:00 +26°C° 0 mm 6 mps 751 mmHg 48%
    11:00 +27°C° 0 mm 6 mps 751 mmHg 45%
    12:00 +27°C° 0 mm 6 mps 751 mmHg 41%
    13:00 +26°C° 0 mm 9 mps 752 mmHg 42%
    14:00 +24°C° 0 mm 12 mps 752 mmHg 42%
    15:00 +23°C° 0 mm 15 mps 753 mmHg 42%
    16:00 +20°C° 0 mm 14 mps 754 mmHg 48%
    17:00 +19°C° 0 mm 13 mps 754 mmHg 54%
    18:00 +17°C° 0 mm 12 mps 755 mmHg 60%
    19:00 +17°C° 0 mm 12 mps 756 mmHg 61%
    20:00 +17°C° 0 mm 11 mps 757 mmHg 61%
    21:00 +17°C° 0 mm 11 mps 757 mmHg 62%
    22:00 +16°C° 0 mm 10 mps 758 mmHg 61%
    23:00 +16°C° 0 mm 10 mps 758 mmHg 60%

    Day after tomorrow, 22 September, Sunday

    Time Temperature Precipitation Wind Pressure Humidity
    00:00 +16°C° 0 mm 9 mps 759 mmHg 59%
    01:00 +16°C° 0.1 mm 9 mps 759 mmHg 59%
    02:00 +15°C° 0.1 mm 8 mps 759 mmHg 60%
    03:00 +15°C° 0.1 mm 7 mps 760 mmHg 60%
    04:00 +15°C° 0.1 mm 7 mps 760 mmHg 60%
    05:00 +15°C° 0.1 mm 8 mps 760 mmHg 60%
    06:00 +15°C° 0.1 mm 8 mps 761 mmHg 60%
    07:00 +16°C° 0 mm 9 mps 761 mmHg 53%
    08:00 +17°C° 0 mm 11 mps 762 mmHg 45%
    09:00 +18°C° 0 mm 12 mps 763 mmHg 38%
    10:00 +18°C° 0 mm 11 mps 763 mmHg 39%
    11:00 +18°C° 0 mm 11 mps 763 mmHg 40%
    12:00 +19°C° 0 mm 11 mps 763 mmHg 41%
    13:00 +18°C° 0 mm 10 mps 763 mmHg 41%
    14:00 +18°C° 0 mm 9 mps 763 mmHg 42%
    15:00 +18°C° 0 mm 9 mps 763 mmHg 43%
    16:00 +17°C° 0 mm 8 mps 763 mmHg 46%
    17:00 +16°C° 0 mm 6 mps 763 mmHg 50%
    18:00 +15°C° 0 mm 5 mps 763 mmHg 53%
    19:00 +15°C° 0 mm 5 mps 764 mmHg 52%
    20:00 +14°C° 0 mm 5 mps 764 mmHg 52%
    21:00 +14°C° 0 mm 4 mps 764 mmHg 51%
    22:00 +14°C° 0 mm 4 mps 764 mmHg 51%
    23:00 +14°C° 0 mm 4 mps 764 mmHg 50%

    23 September, Monday

    Time Temperature Precipitation Wind Pressure Humidity
    00:00 +15°C° 0 mm 4 mps 764 mmHg 50%
    01:00 +15°C° 0 mm 5 mps 763 mmHg 51%
    02:00 +15°C° 0 mm 5 mps 763 mmHg 53%
    03:00 +15°C° 0 mm 5 mps 763 mmHg 55%
    04:00 +15°C° 0 mm 5 mps 763 mmHg 58%
    05:00 +15°C° 0 mm 5 mps 763 mmHg 61%
    06:00 +15°C° 0 mm 5 mps 763 mmHg 65%
    07:00 +17°C° 0 mm 5 mps 763 mmHg 60%
    08:00 +19°C° 0 mm 6 mps 763 mmHg 55%
    09:00 +21°C° 0 mm 7 mps 763 mmHg 50%
    10:00 +21°C° 0 mm 7 mps 763 mmHg 49%
    11:00 +22°C° 0 mm 7 mps 763 mmHg 47%
    12:00 +22°C° 0 mm 7 mps 763 mmHg 46%
    13:00 +22°C° 0 mm 7 mps 763 mmHg 45%
    14:00 +22°C° 0 mm 7 mps 762 mmHg 44%
    15:00 +22°C° 0 mm 6 mps 762 mmHg 43%
    16:00 +21°C° 0 mm 6 mps 762 mmHg 47%
    17:00 +20°C° 0 mm 5 mps 762 mmHg 51%
    18:00 +18°C° 0 mm 4 mps 763 mmHg 55%
    19:00 +18°C° 0 mm 3 mps 763 mmHg 59%
    20:00 +18°C° 0 mm 3 mps 763 mmHg 62%
    21:00 +17°C° 0 mm 2 mps 764 mmHg 65%
    22:00 +17°C° 0 mm 3 mps 764 mmHg 67%
    23:00 +17°C° 0 mm 3 mps 764 mmHg 68%

    24 September, Tuesday

    Time Temperature Precipitation Wind Pressure Humidity
    00:00 +17°C° 0 mm 3 mps 764 mmHg 70%
    01:00 +16°C° 0 mm 2 mps 764 mmHg 73%
    02:00 +16°C° 0 mm 2 mps 764 mmHg 76%
    03:00 +15°C° 0 mm 2 mps 764 mmHg 78%
    04:00 +15°C° 0 mm 2 mps 764 mmHg 77%
    05:00 +15°C° 0 mm 2 mps 764 mmHg 76%
    06:00 +15°C° 0 mm 2 mps 764 mmHg 75%
    07:00 +17°C° 0 mm 2 mps 764 mmHg 67%
    08:00 +19°C° 0 mm 2 mps 765 mmHg 59%
    09:00 +21°C° 0 mm 2 mps 765 mmHg 51%
    10:00 +23°C° 0 mm 2 mps 765 mmHg 48%
    11:00 +24°C° 0 mm 2 mps 764 mmHg 44%
    12:00 +24°C° 0 mm 2 mps 764 mmHg 40%
    13:00 +25°C° 0 mm 2 mps 764 mmHg 40%
    14:00 +25°C° 0 mm 3 mps 763 mmHg 40%
    15:00 +25°C° 0 mm 3 mps 763 mmHg 41%
    16:00 +24°C° 0 mm 3 mps 763 mmHg 41%
    17:00 +22°C° 0 mm 4 mps 762 mmHg 41%
    18:00 +21°C° 0 mm 4 mps 762 mmHg 41%
    19:00 +21°C° 0 mm 5 mps 762 mmHg 41%
    20:00 +20°C° 0 mm 6 mps 762 mmHg 42%
    21:00 +20°C° 0 mm 7 mps 762 mmHg 43%
    22:00 +20°C° 0 mm 7 mps 762 mmHg 40%
    23:00 +18°C° 0 mm 8 mps 761 mmHg 38%

    25 September, Wednesday

    Time Temperature Precipitation Wind Pressure Humidity
    00:00 +18°C° 0 mm 8 mps 761 mmHg 35%
    01:00 +18°C° 0 mm 8 mps 760 mmHg 35%
    02:00 +18°C° 0 mm 8 mps 760 mmHg 34%
    03:00 +18°C° 0 mm 8 mps 760 mmHg 33%
    04:00 +18°C° 0 mm 8 mps 759 mmHg 37%
    05:00 +17°C° 0 mm 7 mps 759 mmHg 41%
    06:00 +17°C° 0 mm 7 mps 759 mmHg 45%
    07:00 +20°C° 0 mm 7 mps 759 mmHg 42%
    08:00 +21°C° 0 mm 7 mps 759 mmHg 40%
    09:00 +23°C° 0 mm 6 mps 759 mmHg 37%
    10:00 +24°C° 0 mm 6 mps 758 mmHg 33%
    11:00 +27°C° 0 mm 6 mps 758 mmHg 30%
    12:00 +29°C° 0 mm 5 mps 758 mmHg 26%
    13:00 +28°C° 0 mm 5 mps 758 mmHg 28%
    14:00 +28°C° 0 mm 4 mps 757 mmHg 31%
    15:00 +27°C° 0 mm 4 mps 757 mmHg 34%
    16:00 +25°C° 0 mm 3 mps 757 mmHg 40%
    17:00 +24°C° 0 mm 3 mps 757 mmHg 46%
    18:00 +21°C° 0 mm 3 mps 758 mmHg 53%
    19:00 +21°C° 0 mm 4 mps 758 mmHg 55%
    20:00 +20°C° 0 mm 4 mps 758 mmHg 57%
    21:00 +20°C° 0 mm 4 mps 759 mmHg 58%
    22:00 +20°C° 0 mm 4 mps 759 mmHg 59%
    23:00 +19°C° 0 mm 3 mps 759 mmHg 60%
    Show more